TimeCDT,TemperatureF,Dew PointF,Humidity,Sea Level PressureIn,VisibilityMPH,Wind Direction,Wind SpeedMPH,Gust SpeedMPH,PrecipitationIn,Events,Conditions,WindDirDegrees,DateUTC
12:53 AM,70.0,66.9,90,30.03,10.0,SSE,11.5,-,N/A,,Clear,160,2013-07-06 05:53:00
1:53 AM,71.1,68.0,90,30.03,10.0,Calm,Calm,-,N/A,,Partly Cloudy,0,2013-07-06 06:53:00
2:01 AM,71.6,68.0,88,30.05,10.0,Calm,Calm,-,N/A,,Partly Cloudy,0,2013-07-06 07:01:00
2:14 AM,71.6,68.0,88,30.05,10.0,Calm,Calm,-,N/A,,Mostly Cloudy,0,2013-07-06 07:14:00
2:53 AM,71.1,69.1,93,30.03,10.0,NNE,4.6,-,N/A,,Mostly Cloudy,30,2013-07-06 07:53:00
3:53 AM,70.0,68.0,93,30.04,10.0,East,4.6,-,N/A,,Overcast,90,2013-07-06 08:53:00
4:02 AM,69.8,68.0,94,30.06,10.0,Calm,Calm,-,N/A,,Overcast,0,2013-07-06 09:02:00
4:35 AM,69.8,68.0,94,30.05,10.0,ESE,3.5,-,N/A,,Mostly Cloudy,110,2013-07-06 09:35:00
4:51 AM,69.8,68.0,94,30.06,10.0,Variable,3.5,-,N/A,,Scattered Clouds,0,2013-07-06 09:51:00
4:53 AM,69.1,68.0,96,30.05,10.0,ESE,4.6,-,N/A,,Scattered Clouds,120,2013-07-06 09:53:00
5:03 AM,69.8,68.0,94,30.06,10.0,ESE,3.5,-,N/A,,Mostly Cloudy,120,2013-07-06 10:03:00
5:21 AM,69.8,68.0,94,30.06,10.0,ESE,3.5,-,N/A,,Scattered Clouds,120,2013-07-06 10:21:00
5:34 AM,69.8,68.0,94,30.06,10.0,Calm,Calm,-,N/A,,Scattered Clouds,0,2013-07-06 10:34:00
5:48 AM,69.8,68.0,94,30.07,10.0,SSE,4.6,-,N/A,,Mostly Cloudy,150,2013-07-06 10:48:00
5:53 AM,69.1,68.0,96,30.05,10.0,SSE,3.5,-,N/A,,Mostly Cloudy,150,2013-07-06 10:53:00
6:15 AM,69.8,68.0,94,30.07,10.0,Calm,Calm,-,N/A,,Mostly Cloudy,0,2013-07-06 11:15:00
6:26 AM,69.8,68.0,94,30.07,10.0,Calm,Calm,-,N/A,,Mostly Cloudy,0,2013-07-06 11:26:00
6:53 AM,70.0,68.0,93,30.07,10.0,SSE,3.5,-,N/A,,Overcast,160,2013-07-06 11:53:00
7:14 AM,69.8,68.0,94,30.08,10.0,Calm,Calm,-,N/A,,Overcast,0,2013-07-06 12:14:00
7:42 AM,69.8,69.8,100,30.09,10.0,Calm,Calm,-,N/A,,Overcast,0,2013-07-06 12:42:00
7:53 AM,71.1,69.1,93,30.08,10.0,Calm,Calm,-,N/A,,Overcast,0,2013-07-06 12:53:00
8:50 AM,73.4,69.8,88,30.09,10.0,SSW,4.6,-,N/A,,Mostly Cloudy,210,2013-07-06 13:50:00
8:53 AM,73.9,69.1,85,30.08,10.0,SSW,4.6,-,N/A,,Mostly Cloudy,210,2013-07-06 13:53:00
9:06 AM,73.4,69.8,88,30.09,10.0,Calm,Calm,-,N/A,,Mostly Cloudy,0,2013-07-06 14:06:00
9:53 AM,75.9,70.0,82,30.08,10.0,SSE,4.6,-,N/A,,Overcast,160,2013-07-06 14:53:00
10:53 AM,77.0,70.0,79,30.08,10.0,SE,3.5,-,N/A,,Overcast,140,2013-07-06 15:53:00
11:38 AM,73.4,69.8,88,30.09,2.5,SSE,6.9,-,0.06,Rain,Heavy Rain,160,2013-07-06 16:38:00
11:45 AM,71.6,69.8,94,30.09,1.8,SE,5.8,-,0.10,Rain,Rain,140,2013-07-06 16:45:00
11:49 AM,71.6,69.8,94,30.09,3.0,ESE,3.5,-,0.10,Rain,Rain,120,2013-07-06 16:49:00
11:53 AM,73.0,70.0,90,30.08,6.0,Variable,3.5,-,0.11,Rain,Light Rain,0,2013-07-06 16:53:00
12:53 PM,77.0,72.0,84,30.06,10.0,NE,4.6,-,0.02,,Overcast,50,2013-07-06 17:53:00
1:53 PM,81.0,72.0,74,30.04,10.0,NE,4.6,-,0.01,,Scattered Clouds,40,2013-07-06 18:53:00
2:53 PM,84.0,69.1,61,30.02,10.0,South,4.6,-,N/A,,Scattered Clouds,170,2013-07-06 19:53:00
3:53 PM,84.9,66.9,55,30.00,10.0,South,5.8,-,N/A,,Scattered Clouds,190,2013-07-06 20:53:00
4:53 PM,84.9,69.1,59,29.99,10.0,South,9.2,-,N/A,,Scattered Clouds,170,2013-07-06 21:53:00
5:53 PM,82.9,69.1,63,29.98,10.0,SSE,3.5,-,N/A,,Clear,150,2013-07-06 22:53:00
6:53 PM,82.0,70.0,67,29.99,10.0,SE,4.6,-,N/A,,Scattered Clouds,140,2013-07-06 23:53:00
7:53 PM,79.0,70.0,74,30.00,10.0,SSE,3.5,-,N/A,,Clear,160,2013-07-07 00:53:00
8:53 PM,75.0,71.1,87,30.01,10.0,Calm,Calm,-,N/A,,Clear,0,2013-07-07 01:53:00
9:53 PM,73.9,71.1,91,30.03,10.0,South,3.5,-,N/A,,Mostly Cloudy,180,2013-07-07 02:53:00
10:53 PM,73.9,70.0,87,30.04,10.0,Calm,Calm,-,N/A,,Clear,0,2013-07-07 03:53:00
11:53 PM,73.9,69.1,85,30.05,10.0,SSE,4.6,-,N/A,,Partly Cloudy,160,2013-07-07 04:53:00